Wind_Speed
32 32 32 33 33 34 35 36 36 37 38 38 39 39 40 41 42 43 43 44 45 46 46 48 49 49 50 50 51 53 54 55 55 55 57 58 59 60 62 63 64 65 66
33 33 33 34 34 35 36 37 37 38 39 39 40 40 41 42 43 44 44 45 46 47 48 49 49 50 51 52 53 54 55 56 57 57 58 60 61 62 64 65 66 67 67
34 34 34 35 35 36 37 38 39 39 40 40 41 41 42 43 44 45 45 46 47 48 49 49 50 51 52 53 55 56 57 58 59 60 60 62 63 65 66 67 68 68 67
35 35 36 36 36 37 38 39 39 40 41 41 42 43 43 44 45 46 46 47 48 49 49 50 51 52 54 55 56 57 58 59 60 61 62 64 65 66 68 68 68 68 67
36 37 37 37 37 38 39 39 40 41 41 42 43 44 45 45 46 47 47 48 49 50 50 51 53 54 55 56 56 57 59 60 61 63 64 65 66 68 69 69 69 67 66
37 38 38 38 38 39 40 40 41 41 42 43 44 45 45 46 47 47 48 49 50 50 52 53 54 54 55 56 57 59 60 61 63 64 65 67 68 69 69 68 67 66 64
38 39 39 39 40 40 41 41 41 42 43 44 45 45 46 47 47 48 49 50 50 51 53 54 55 55 56 57 58 60 61 62 64 65 67 67 68 68 68 66 65 64 63
39 39 40 41 41 41 41 42 43 43 44 45 46 46 47 48 49 49 50 51 51 53 54 55 56 57 58 59 60 61 62 63 65 66 67 67 67 66 66 65 64 63 62
40 40 41 42 42 42 43 43 44 45 45 46 46 47 48 48 49 50 51 52 53 54 55 56 57 58 59 60 61 62 62 63 64 65 65 65 65 65 64 64 63 62 60
40 41 41 42 43 43 43 44 45 45 46 47 47 48 49 49 50 51 53 54 54 55 56 57 58 59 59 60 62 62 62 63 63 63 64 64 63 63 62 61 60 59 58
41 41 42 43 43 43 44 45 45 46 47 47 48 49 50 51 52 53 54 55 56 56 57 57 58 59 60 61 62 62 62 63 63 63 63 62 62 61 60 58 57 56 55
41 42 43 43 43 43 44 45 46 46 47 48 49 50 51 52 53 54 55 56 56 57 57 58 58 59 60 61 61 61 62 63 63 63 62 61 60 59 57 56 55 54 53
41 42 43 43 44 44 45 46 46 47 48 49 50 51 52 53 54 55 55 56 57 57 58 58 58 59 60 60 61 61 62 62 63 62 61 60 58 57 55 54 52 51 50
42 42 43 44 44 45 45 46 47 48 49 50 51 52 52 53 54 55 55 56 57 58 58 58 59 60 60 60 61 61 62 62 62 61 60 58 56 55 53 51 49 47 45
42 43 44 44 44 45 45 46 48 49 50 51 51 52 53 54 54 55 56 57 57 58 58 58 59 60 60 60 61 61 62 61 61 60 58 56 54 53 51 48 46 44 41
43 43 44 44 45 45 46 47 48 49 50 51 52 53 54 54 55 55 56 57 57 58 59 59 59 60 60 60 61 61 61 60 59 58 56 54 52 50 47 45 42 40 38
43 44 44 45 46 46 47 48 48 49 51 52 53 54 54 55 55 56 56 57 58 59 59 59 60 60 60 60 61 61 60 59 57 55 53 51 48 45 43 40 38 36 35
44 44 45 46 46 47 48 49 49 50 51 52 53 54 54 55 55 56 57 58 59 59 59 60 59 59 60 60 60 59 58 56 54 51 49 46 43 41 38 36 35 33 31
44 44 45 46 46 47 48 49 50 51 52 52 53 53 54 55 56 57 58 59 59 59 59 59 59 59 59 59 58 57 55 52 50 47 44 41 39 37 35 33 32 30 28
44 44 45 46 46 47 48 50 51 51 52 52 53 54 54 55 56 58 59 59 59 59 59 58 58 58 57 57 55 53 51 48 46 43 40 37 35 34 32 31 30 28 26
43 44 45 46 47 48 49 50 51 51 52 53 53 54 55 56 57 58 59 59 59 58 57 57 56 55 54 53 51 49 47 45 42 39 36 34 33 32 30 29 28 26 25
44 45 46 47 48 49 50 51 51 51 52 53 54 54 56 57 57 58 58 58 57 56 54 53 52 51 50 50 48 46 44 41 38 35 33 32 31 30 29 28 26 25 23
45 46 47 47 48 50 50 51 51 52 52 53 54 55 56 56 57 57 56 55 54 53 51 50 49 48 48 47 45 43 40 37 35 33 31 30 29 29 28 26 24 23 22
46 46 47 48 49 49 50 50 51 52 53 54 55 55 55 56 56 55 53 52 51 50 49 48 47 46 46 44 42 40 37 34 33 31 30 29 28 27 26 24 23 21 20
46 46 47 47 48 49 49 50 51 53 54 54 54 55 55 54 53 52 50 49 48 47 46 46 46 45 44 42 40 37 35 33 32 30 29 28 27 26 24 22 21 20 19
45 46 47 47 48 48 49 50 51 52 53 53 53 53 53 52 50 49 48 47 46 45 45 45 44 43 41 40 37 35 33 32 31 30 28 26 25 23 22 21 20 19 17
Wind_Direction
275 277 279 281 283 285 287 289 291 293 295 296 297 297 298 299 300 301 301 301 300 300 300 299 299 299 299 299 299 299 299 299 299 299 299 298 298 297 297 297 297 296 296
276 278 279 281 283 285 287 289 291 292 294 296 297 297 298 300 301 301 301 300 300 300 300 300 300 299 299 299 299 299 299 299 299 299 299 299 298 298 297 297 297 297 297
275 277 279 281 283 285 287 288 290 292 294 295 296 297 298 299 300 300 300 300 300 300 300 300 300 300 299 299 299 299 299 299 299 300 299 299 299 298 298 298 298 297 297
275 277 279 281 283 285 286 288 290 292 294 295 296 297 298 299 300 300 300 300 301 301 301 301 300 300 300 300 300 300 300 300 300 300 300 300 299 299 299 298 298 298 297
275 277 279 280 282 284 286 288 290 292 294 295 296 297 298 299 300 300 300 301 301 301 301 302 301 301 301 301 301 301 301 301 301 301 301 300 300 300 300 299 299 298 298
275 277 279 280 282 284 286 288 291 293 294 296 297 298 298 299 300 300 301 301 302 302 302 302 302 302 302 302 302 302 302 302 301 301 301 301 301 301 301 300 299 299 298
275 277 279 280 282 284 286 288 290 292 294 296 297 298 299 299 300 300 301 302 302 303 303 303 303 303 303 303 302 302 302 302 302 302 302 303 303 302 301 300 300 299 299
275 277 279 281 283 285 287 289 291 293 294 296 297 298 299 299 300 301 301 302 303 303 303 303 303 303 303 303 303 303 303 303 303 303 304 304 303 303 302 301 300 300 300
276 278 279 281 284 286 287 289 292 293 294 296 297 298 299 300 300 301 302 302 303 303 303 304 304 304 304 304 304 304 304 304 305 305 305 305 304 303 303 302 302 301 301
276 278 280 282 284 286 288 290 292 293 295 296 297 298 299 300 301 301 302 303 303 304 304 304 305 305 305 305 305 305 305 306 306 306 306 305 305 304 304 303 303 303 303
276 278 280 282 284 287 288 290 292 293 295 296 298 299 300 300 301 302 303 303 304 305 305 305 305 305 305 305 306 306 307 307 307 307 307 306 306 305 304 303 303 304 304
277 279 281 282 285 287 289 290 292 293 295 297 298 299 300 301 302 302 303 304 305 305 306 306 306 306 306 306 307 307 307 308 308 308 308 307 306 306 305 304 304 304 305
277 279 281 283 285 287 289 291 292 294 296 297 298 300 301 301 302 303 304 305 305 306 306 306 306 307 307 307 307 307 308 308 308 308 308 308 307 307 306 305 305 305 305
277 279 282 283 285 287 289 291 293 295 296 297 299 300 301 302 303 303 304 305 306 306 306 307 307 307 308 308 308 308 308 308 308 308 308 308 308 307 306 306 305 305 305
277 280 282 283 285 287 289 292 294 295 297 298 299 301 302 303 303 304 305 306 306 307 307 307 308 308 308 309 309 309 309 309 309 309 308 308 308 308 307 306 305 305 305
278 280 282 284 286 288 290 292 294 296 297 299 300 301 302 303 304 304 305 306 307 308 308 308 309 309 309 309 309 309 309 309 309 309 309 308 308 308 307 306 306 305 305
279 280 282 284 286 288 291 293 294 296 297 299 300 301 302 303 304 305 306 307 307 308 308 308 308 309 309 309 309 310 310 310 310 309 309 309 308 307 307 306 306 306 305
279 281 283 285 287 288 290 292 294 296 298 299 301 302 302 304 304 305 306 307 307 308 308 308 308 309 309 309 310 310 310 310 310 309 308 308 308 308 307 306 306 306 305
279 281 283 285 287 288 291 293 295 297 298 299 300 301 303 304 305 306 307 307 307 308 308 308 308 309 310 310 311 311 310 310 310 309 309 308 308 308 307 307 307 306 305
280 282 284 285 287 289 291 293 295 297 298 299 301 302 303 304 305 306 307 307 307 307 308 308 308 309 310 311 312 312 311 311 311 310 309 309 309 308 308 307 307 306 305
280 282 284 286 288 290 292 294 296 297 298 299 301 302 303 305 306 306 307 307 308 308 308 309 309 310 311 312 313 312 312 311 311 310 309 308 308 308 307 306 306 305 304
282 284 285 287 288 290 292 294 295 296 298 300 301 303 305 306 307 307 308 308 308 309 309 309 310 311 312 313 313 312 312 312 311 309 308 308 308 308 307 306 305 304 303
282 284 285 287 289 291 293 294 296 297 299 300 302 304 306 307 308 308 308 308 309 309 310 311 311 312 313 314 313 313 312 311 309 308 308 308 308 308 308 307 305 303 302
283 284 286 287 289 291 293 294 296 298 300 301 303 304 305 307 308 308 308 309 309 310 311 311 312 313 313 313 313 312 311 309 308 307 307 307 308 308 307 306 304 302 301
282 284 286 288 290 292 293 295 297 299 300 301 303 304 305 306 307 307 308 309 310 310 311 311 312 313 313 313 312 311 310 308 307 307 307 306 306 306 306 304 303 301 300
283 285 287 289 291 293 294 295 297 299 300 301 302 304 305 306 306 307 308 309 310 310 311 312 312 313 313 312 311 310 309 308 307 306 306 305 305 305 305 303 301 300 299
Height
5739 5738 5736 5735 5733 5731 5728 5726 5723 5720 5717 5713 5709 5706 5702 5698 5693 5689 5684 5679 5675 5670 5665 5660 5654 5649 5644 5638 5633 5627 5621 5615 5610 5606 5599 5593 5586 5579 5573 5566 5560 5553 5547
5730 5729 5728 5726 5724 5722 5720 5717 5714 5711 5707 5704 5700 5696 5692 5688 5683 5679 5674 5669 5664 5659 5654 5648 5643 5637 5632 5626 5620 5614 5608 5602 5596 5591 5585 5578 5571 5564 5557 5550 5543 5536 5529
5721 5720 5718 5717 5715 5713 5710 5707 5704 5701 5698 5694 5690 5686 5682 5678 5673 5668 5663 5658 5653 5648 5642 5637 5631 5625 5619 5613 5607 5601 5595 5588 5581 5576 5570 5562 5555 5548 5540 5533 5525 5518 5511
5712 5711 5709 5708 5706 5703 5700 5698 5695 5691 5688 5684 5680 5676 5672 5667 5662 5658 5652 5647 5642 5636 5631 5625 5619 5613 5606 5600 5594 5587 5580 5574 5567 5560 5554 5547 5539 5531 5522 5515 5507 5500 5493
5702 5701 5700 5698 5696 5693 5690 5688 5685 5681 5678 5674 5670 5666 5661 5657 5652 5646 5641 5636 5630 5625 5619 5613 5606 5600 5593 5586 5580 5573 5566 5558 5551 5544 5537 5530 5522 5513 5505 5496 5489 5482 5475
5692 5691 5689 5688 5685 5683 5680 5677 5674 5671 5667 5663 5659 5655 5650 5646 5641 5635 5630 5624 5618 5613 5606 5600 5593 5587 5580 5573 5566 5558 5551 5543 5535 5528 5520 5512 5504 5495 5486 5478 5470 5463 5457
5682 5681 5679 5677 5675 5673 5670 5667 5664 5660 5657 5653 5648 5644 5639 5634 5629 5623 5618 5612 5606 5600 5594 5587 5580 5574 5566 5559 5552 5544 5536 5527 5519 5511 5503 5494 5486 5478 5469 5461 5453 5445 5439
5671 5670 5668 5666 5664 5662 5659 5656 5653 5649 5645 5641 5637 5632 5627 5622 5617 5611 5605 5600 5594 5587 5581 5574 5567 5560 5552 5544 5537 5529 5520 5512 5504 5494 5486 5477 5468 5459 5450 5443 5435 5428 5421
5661 5659 5657 5656 5654 5651 5648 5645 5642 5638 5634 5630 5625 5620 5615 5610 5605 5599 5593 5587 5581 5575 5568 5560 5553 5545 5538 5530 5522 5514 5505 5496 5487 5478 5469 5459 5450 5442 5433 5425 5418 5410 5405
5649 5648 5646 5644 5642 5640 5637 5633 5630 5626 5622 5618 5613 5608 5603 5598 5592 5586 5580 5574 5568 5561 5554 5546 5539 5531 5523 5514 5506 5498 5489 5480 5471 5462 5453 5444 5435 5426 5417 5408 5401 5394 5387
5638 5637 5635 5633 5631 5628 5625 5622 5618 5614 5610 5606 5601 5596 5591 5585 5579 5573 5567 5560 5554 5547 5539 5532 5524 5516 5507 5499 5490 5482 5473 5464 5455 5446 5437 5428 5419 5410 5402 5393 5386 5379 5372
5627 5625 5623 5621 5619 5616 5613 5610 5606 5602 5598 5593 5588 5583 5578 5572 5566 5560 5553 5546 5539 5532 5525 5517 5509 5501 5493 5484 5475 5467 5458 5449 5440 5431 5422 5413 5404 5395 5387 5379 5372 5365 5358
5615 5613 5611 5609 5607 5604 5601 5598 5594 5590 5585 5581 5576 5571 5565 5559 5553 5546 5539 5532 5525 5517 5510 5502 5494 5486 5478 5469 5461 5452 5443 5434 5425 5416 5407 5398 5389 5381 5373 5366 5359 5352 5346
5603 5602 5600 5597 5595 5592 5589 5585 5581 5577 5572 5567 5562 5557 5551 5545 5539 5532 5525 5518 5511 5503 5496 5488 5480 5471 5463 5455 5446 5437 5428 5419 5410 5401 5392 5383 5375 5367 5360 5353 5346 5340 5334
5591 5590 5588 5585 5582 5580 5576 5572 5568 5564 5559 5554 5549 5543 5537 5532 5525 5518 5511 5504 5496 5489 5481 5473 5465 5457 5448 5440 5431 5422 5413 5404 5395 5386 5377 5369 5362 5354 5347 5341 5335 5329 5324
5579 5577 5575 5573 5570 5567 5563 5560 5555 5550 5545 5540 5535 5529 5523 5517 5510 5504 5496 5489 5481 5474 5466 5458 5450 5442 5434 5425 5416 5407 5398 5389 5380 5372 5364 5356 5349 5342 5335 5329 5324 5319 5314
5566 5565 5562 5560 5557 5554 5550 5546 5542 5537 5532 5526 5521 5515 5509 5503 5496 5489 5482 5475 5467 5459 5451 5443 5435 5427 5419 5410 5401 5392 5383 5375 5366 5358 5351 5343 5337 5330 5324 5319 5314 5309 5305
5553 5551 5549 5546 5543 5540 5537 5533 5528 5524 5519 5513 5507 5500 5494 5488 5482 5475 5468 5460 5453 5445 5437 5429 5421 5412 5404 5395 5386 5378 5369 5361 5353 5345 5338 5332 5326 5320 5315 5310 5305 5301 5297
5540 5538 5536 5533 5530 5526 5523 5519 5514 5509 5504 5499 5493 5486 5480 5474 5467 5460 5452 5445 5438 5430 5422 5414 5406 5397 5389 5381 5372 5364 5356 5348 5340 5333 5327 5321 5316 5310 5306 5301 5297 5293 5289
5527 5524 5522 5519 5516 5513 5509 5505 5500 5495 5490 5484 5479 5473 5466 5460 5453 5445 5438 5430 5422 5415 5407 5399 5391 5383 5375 5366 5358 5350 5343 5336 5329 5322 5317 5311 5306 5302 5297 5293 5289 5286 5282
5513 5511 5509 5506 5503 5499 5495 5491 5486 5481 5476 5470 5464 5458 5452 5445 5438 5431 5423 5415 5407 5399 5392 5384 5376 5369 5361 5353 5345 5338 5331 5325 5318 5312 5307 5303 5298 5294 5290 5286 5282 5279 5276
5500 5498 5495 5492 5489 5485 5481 5476 5471 5466 5461 5456 5450 5443 5437 5430 5423 5415 5408 5400 5392 5385 5377 5370 5363 5356 5348 5341 5334 5327 5320 5314 5309 5303 5299 5294 5290 5286 5282 5279 5275 5272 5269
5486 5484 5481 5478 5474 5470 5466 5462 5457 5452 5447 5441 5435 5429 5422 5415 5408 5400 5393 5386 5378 5371 5364 5357 5351 5344 5337 5330 5323 5317 5311 5305 5300 5295 5291 5287 5283 5279 5275 5272 5268 5266 5263
5472 5470 5467 5463 5460 5456 5452 5447 5442 5438 5432 5427 5420 5414 5407 5400 5393 5386 5379 5372 5365 5359 5352 5345 5339 5332 5325 5319 5313 5307 5301 5296 5292 5287 5283 5279 5276 5272 5268 5265 5262 5260 5257
5458 5455 5452 5449 5445 5441 5437 5433 5428 5423 5417 5412 5405 5399 5393 5386 5379 5372 5366 5359 5353 5347 5340 5334 5327 5321 5315 5308 5303 5297 5292 5288 5283 5279 5275 5272 5269 5265 5262 5259 5256 5254 5252
5443 5441 5438 5434 5431 5427 5423 5418 5413 5408 5402 5396 5390 5384 5378 5372 5365 5359 5353 5347 5341 5335 5329 5323 5316 5310 5304 5298 5293 5288 5283 5279 5275 5271 5267 5264 5261 5258 5256 5253 5251 5248 5246